This is the latest recevied weather packets stored in our database for station/object VA7IS. If no packets are shown the sender has not sent any weather packets the latest 10 day(s).
| Time | Temp. | Humidity | Pressure | Rain* | Wind** | Luminosity | Snow |
|---|---|---|---|---|---|---|---|
| 1778173803 | 12.78° C | 24% | 1019 hPa | 0 mm | - | - | - |
| 1778173505 | 12.78° C | 22% | 1019 hPa | 0 mm | - | - | - |
| 1778171404 | 12.78° C | 11% | 1019 hPa | 0 mm | - | - | - |
| 1778169304 | 12.22° C | 2% | 1019 hPa | 0 mm | - | - | - |
| 1778162704 | 12.22° C | 1% | 1018.9 hPa | 0 mm | - | - | - |
| 1778161804 | 12.22° C | 1% | 1019 hPa | 0 mm | - | - | - |
| 1778161503 | 11.67° C | 1% | 1019 hPa | 0 mm | - | - | - |
| 1778159703 | 12.22° C | 1% | 1018.9 hPa | 0 mm | - | - | - |
| 1778159103 | 11.67° C | 1% | 1018.9 hPa | 0 mm | - | - | - |
| 1778155504 | 12.22° C | 1% | 1018.9 hPa | 0 mm | - | - | - |
| 1778151903 | 12.22° C | 1% | 1019.2 hPa | 0 mm | - | - | - |
| 1778150104 | 12.78° C | 1% | 1019.1 hPa | 0 mm | - | - | - |
| 1778145905 | 12.78° C | 1% | 1019 hPa | 0 mm | - | - | - |
| 1778144105 | 12.78° C | 1% | 1018.9 hPa | 0 mm | - | - | - |
| 1778140505 | 12.78° C | 1% | 1018.5 hPa | 0 mm | - | - | - |
| 1778139306 | 12.78° C | 1% | 1018.5 hPa | 0 mm | - | - | - |
| 1778135105 | 12.78° C | 1% | 1018.4 hPa | 0 mm | - | - | - |
| 1778133905 | 12.78° C | 1% | 1018.4 hPa | 0 mm | - | - | - |
| 1778132405 | 12.78° C | 2% | 1018.3 hPa | 0 mm | - | - | - |
| 1778129105 | 12.78° C | 2% | 1018.2 hPa | 0 mm | - | - | - |
| 1778126705 | 13.33° C | 4% | 1018.1 hPa | 0 mm | - | - | - |
| 1778124904 | 13.33° C | 2% | 1018.1 hPa | 0 mm | - | - | - |
| 1778122805 | 13.89° C | 9% | 1018.1 hPa | 0 mm | - | - | - |
| 1778122205 | 13.89° C | 16% | 1018.1 hPa | 0 mm | - | - | - |
| 1778120705 | 13.89° C | 27% | 1018.1 hPa | 0 mm | - | - | - |
* Rain latest hour (hover to see other rain measurements)
** Current wind speed in m/s (hover to see current wind gust speed)